Dauntless Aviation
Airports North America United States Texas
63TE

FLYING S RANCH AIRPORT

KENNARD, TX, USA

Airport Info
Suggest Updated Information for this Airport

Location

Latitude / Longitude: 31°21'12"N / 95°12'20"W
  31°21.2109'N / 95°12.3463'W
  31.3535 / -95.2058
Elevation: 370.0 ft. (estimated)
Variation: 06E (1985)
From city: 01 miles SW of KENNARD, TX

Operations

Facility use: Private
Sectional chart: HOUSTON
Control tower: no
Boundary ARTCC: HOUSTON
FSS: MONTGOMERY COUNTY [1-800-WX-BRIEF]
Segmented circle: no

Communications

Nearby radio navigation aids

VOR radial/distance VOR name Freq Var
LFK 295oT/27.6 LUFKIN VORTAC 112.10 05E
 
NDB name Hdg/Dist Freq Var ID
NADOS 252oT/26.1 253 05E OC
CHEROKEE COUNTY 179oT/31.0 263 05E JSO
NACOGDOCHES 235oT/31.1 391 05E GXD
PALESTINE 135oT/36.0 375 04E PSN

Services

Runway Information

Runway 14/32

Dimensions: 2000 x 100 ft.
Surface: NATURAL SOIL,NO SPECIAL SURFACE TREATMENT
 
Runway 14
Runway 32
 

Additional Remarks

Instrument Procedures

No published instrument procedures available
Topographic chart at:
Satellite photo at:
Airport distance calculator
From:
Weather Reports

METAR

KDKR
10.5nm SW
KDKR 210930Z AUTO 00000KT 7SM FEW011 FEW036 23/23 A2991 RMK AO2
KLFK
24.5nm E
KLFK 210936Z AUTO 13003KT 10SM BKN003 BKN070 BKN100 23/23 A2989 RMK AO2 RAE05 P0000 T02280228 TSNO
KOCH
28.1nm NE
KOCH 210856Z AUTO 15006KT 10SM 23/22 A2991 RMK AO2 SLP128 P0001 60001 T02330222 50004 $
KJSO
30.8nm NW
KJSO 210935Z AUTO 17004KT 7SM BKN003 OVC065 22/22 A2992 RMK AO2 T02300230
KPSN
36.1nm NW
KPSN 210935Z AUTO 00000KT 7SM OVC005 23/23 A2992 RMK AO2 T02350235

TAF

KLFK
24.5nm E
KLFK 210520Z 2106/2206 12005KT P6SM VCSH SCT100 TEMPO 2106/2109 3SM SHRA BR SCT005 OVC020 FM211200 23006KT P6SM VCTS BKN030CB FM211600 19005KT P6SM SCT040 FM220100 17004KT P6SM SKC
Safelog

 

Dauntless Aviation

© 2007-2018 Dauntless Aviation, all rights reserved
Information provided via PilotNav comes from a variety of official and unofficial data sources. As errors are possible, do not use PilotNav for primary flight planning purposes. Verify any information that you receive via PilotNav with current and canonical charts and other official documents. The material in this database is subject to database copyrights held by Dauntless Aviation and may not be copied without the express permission of Dauntless Aviation - licenses for use of part of all of this data are available for purchase; enquire via the Dauntless Aviation helpdesk. A number of mechanisms and markers exist in the database to protect against and identify infringement / copyright. Automated queries against this website are stictly prohibited, and all activity is logged and analyzed.